Location: Killam
(52.7910°N, 111.8608°W)
Time: 10:45:55
(UTC+00:00)

SR - Pass Details

Date: 24 February 2026
Orbit: 573 x 848 km, 66.7° (Epoch: 7 March)

Event Time Altitude Azimuth Distance (km) Brightness Sun altitude
Exits shadow 12:29:38 28° 306° (NW) 1,185 ? -18.1°
Maximum altitude 12:30:31 30° 328° (NNW) 1,137 ? -18.0°
Drops below altitude 10° 12:34:38 10° 30° (NNE) 2,084 ? -17.4°
Sets 12:37:18 0° 41° (NE) 3,051 ? -17.0°
